Location: Bucharest
(44.4268°N, 26.1025°E)
Time: 16:35:09
(UTC+03:00)

CUTE 1.7 + AOD 2 - Pass Details

Date: 03 July 2022
Orbit: 589 x 608 km, 97.7° (Epoch: 14 August)

Event Time Altitude Azimuth Distance (km) Brightness Sun altitude
Rises 03:52:06 0° 34° (NE) 2,847 ? -14.1°
Reaches altitude 10° 03:55:38 10° 66° (ENE) 1,933 ? -13.8°
Maximum altitude 03:57:17 12° 89° (E) 1,796 ? -13.6°
Drops below altitude 10° 03:58:55 10° 112° (ESE) 1,922 ? -13.4°
Sets 04:02:24 0° 144° (SE) 2,813 ? -13.0°
